Eau Claire, WI

4:51 AM CDT on April 24, 2018 (GMT -0500)
Chippewa Valley Regional

Weather History for KEAU - October, 2011

Change the Weather History Date:

Monday, October 31, 2011

  Actual Average Record
Temperature  
Mean Temperature 42 °F 41 °F  
Max Temperature 48 °F 51 °F 79 °F (1950)
Min Temperature 36 °F 32 °F 15 °F (1951)
Degree Days  
Heating Degree Days 23 24  
Month to date heating degree days 450 552  
Since 1 July heating degree days 694 784  
Cooling Degree Days 0 0  
Month to date cooling degree days 18 4  
Year to date cooling degree days 655 579  
Moisture  
Dew Point 36 °F    
Average Humidity 81    
Maximum Humidity 100    
Minimum Humidity 61    
Precipitation  
Precipitation 0.00 in 0.06 in 1.01 in (1900)
Month to date precipitation 1.01 2.34  
Year to date precipitation 30.15 28.14  
Snow  
Snow 0.00 in 0.00 in 2.00 in (1932)
Month to date snowfall 0.0 0.4  
Since 1 July snowfall 0.0 0.4  
Since 1 September snowfall 0.0 0.4  
Snow Depth 0.00 in    
Sea Level Pressure  
Sea Level Pressure 29.99 in    
Wind  
Wind Speed 5 mph (SW)    
Max Wind Speed 13 mph    
Max Gust Speed 15 mph    
Visibility 8 miles    
Events      
T = Trace of Precipitation, MM = Missing Value Source: NWS Daily Summary

Daily Weather History Graph

Daily Weather History Graph

Search for Another Location

Airport or City:

Astronomy

Oct. 31, 2011 Rise Set
Actual Time 7:42 AM CDT 5:56 PM CDT
Civil Twilight 7:11 AM CDT 6:26 PM CDT
Nautical Twilight 6:37 AM CDT 7:00 PM CDT
Astronomical Twilight 6:03 AM CDT 7:34 PM CDT
Moon 12:55 PM CDT (10/31) 10:27 PM CDT (10/31)
Length of Visible Light 11h 14m
Length of Day
10h 13m
Waxing Crescent, 30% of the Moon is Illuminated
Oct 31
Waxing Crescent
Nov 2
First Quarter
Nov 10
Full
Nov 18
Last Quarter
Nov 25
New

Hourly Weather History & Observations

Time (CDT) Temp. Windchill Dew Point Humidity Pressure Visibility Wind Dir Wind Speed Gust Speed Precip Events Conditions
12:21 AM 37.4 °F - 35.6 °F 93% 29.91 in 7.0 mi Calm Calm - N/A   Overcast
12:56 AM 37.9 °F - 36.0 °F 93% 29.94 in 7.0 mi Calm Calm - N/A   Overcast
1:03 AM 37.4 °F 33.8 °F 35.6 °F 93% 29.92 in 7.0 mi West 4.6 mph - N/A   Overcast
1:47 AM 37.4 °F 34.9 °F 35.6 °F 93% 29.93 in 7.0 mi WSW 3.5 mph - N/A   Overcast
1:56 AM 37.9 °F 34.4 °F 36.0 °F 93% 29.96 in 7.0 mi West 4.6 mph - N/A   Overcast
2:39 AM 37.4 °F 33.8 °F 35.6 °F 93% 29.94 in 8.0 mi West 4.6 mph - N/A   Overcast
2:56 AM 37.0 °F 33.3 °F 36.0 °F 96% 29.97 in 8.0 mi West 4.6 mph - N/A   Overcast
3:56 AM 37.0 °F 34.5 °F 36.0 °F 96% 29.96 in 8.0 mi WSW 3.5 mph - N/A   Overcast
4:56 AM 37.0 °F 33.3 °F 36.0 °F 96% 29.97 in 7.0 mi WSW 4.6 mph - N/A   Overcast
5:56 AM 37.0 °F 32.4 °F 36.0 °F 96% 29.99 in 7.0 mi West 5.8 mph - N/A   Overcast
6:56 AM 37.0 °F 33.3 °F 36.0 °F 96% 30.00 in 7.0 mi WSW 4.6 mph - N/A   Overcast
7:56 AM 37.9 °F - 36.0 °F 93% 30.01 in 7.0 mi Calm Calm - N/A   Overcast
8:56 AM 37.9 °F 35.5 °F 37.0 °F 97% 30.01 in 5.0 mi SW 3.5 mph - N/A   Overcast
9:56 AM 39.9 °F 37.8 °F 37.9 °F 93% 30.02 in 6.0 mi WSW 3.5 mph - N/A   Overcast
10:44 AM 41.0 °F 38.0 °F 37.4 °F 87% 30.00 in 7.0 mi West 4.6 mph - N/A   Overcast
10:56 AM 41.0 °F 39.0 °F 37.9 °F 89% 30.03 in 8.0 mi WSW 3.5 mph - N/A   Overcast
11:56 AM 44.1 °F 40.8 °F 37.9 °F 79% 30.02 in 10.0 mi Variable 5.8 mph - N/A   Overcast
12:56 PM 45.0 °F 41.8 °F 37.0 °F 74% 30.01 in 10.0 mi WSW 5.8 mph - N/A   Overcast
1:56 PM 45.0 °F 39.7 °F 35.1 °F 68% 30.00 in 10.0 mi SSW 10.4 mph - N/A   Overcast
2:56 PM 46.0 °F 41.4 °F 35.1 °F 66% 30.01 in 10.0 mi West 9.2 mph - N/A   Overcast
3:56 PM 48.0 °F - 35.1 °F 61% 29.99 in 10.0 mi WSW 6.9 mph - N/A   Scattered Clouds
4:56 PM 46.9 °F - 36.0 °F 66% 30.00 in 10.0 mi WSW 5.8 mph - N/A   Clear
5:56 PM 44.1 °F - 36.0 °F 73% 30.00 in 10.0 mi Calm Calm - N/A   Clear
6:56 PM 37.9 °F 34.4 °F 33.1 °F 83% 30.01 in 10.0 mi SE 4.6 mph - N/A   Clear
7:56 PM 37.0 °F - 33.1 °F 86% 30.01 in 10.0 mi Calm Calm - N/A   Clear
8:56 PM 39.0 °F 34.0 °F 35.1 °F 86% 30.00 in 10.0 mi SSE 6.9 mph - N/A   Clear
9:56 PM 39.0 °F 33.4 °F 35.1 °F 86% 30.01 in 10.0 mi SSE 8.1 mph - N/A   Clear
10:56 PM 39.0 °F 34.8 °F 35.1 °F 86% 30.01 in 10.0 mi SSE 5.8 mph - N/A   Clear
11:56 PM 39.9 °F 34.5 °F 35.1 °F 83% 30.00 in 10.0 mi South 8.1 mph - N/A   Clear